Location: Norton
(51.3000°N, 0.8167°E)
Time: 17:51:27
(UTC+00:00)

FALCON 9 DEB - Pass Details

Date: 03 March 2021
Orbit: 367 x 387 km, 53.0° (Epoch: 12 April)

Event Time Altitude Azimuth Distance (km) Brightness Sun altitude
Rises 19:29:03 0° 282° (WNW) 2,291 8.6 -17.6°
Reaches altitude 10° 19:31:08 10° 285° (WNW) 1,433 7.0 -17.9°
Maximum altitude 19:34:20 70° 9° (N) 422 2.9 -18.4°
Enters shadow 19:34:36 65° 49° (NE) 436 2.9 -18.4°
